Year,Month,Day,Hour,Minute,Value (Times are PST for insolation in W/m^2)
2011,10,09,00,00,0.00
2011,10,09,00,01,0.00
2011,10,09,00,02,0.00
2011,10,09,00,03,0.00
2011,10,09,00,04,0.00
2011,10,09,00,05,0.00
2011,10,09,00,06,0.00
2011,10,09,00,07,0.00
2011,10,09,00,08,0.00
2011,10,09,00,09,0.00
2011,10,09,00,10,0.00
2011,10,09,00,11,0.00
2011,10,09,00,12,0.00
2011,10,09,00,13,0.00
2011,10,09,00,14,0.00
2011,10,09,00,15,0.00
2011,10,09,00,16,0.00
2011,10,09,00,17,0.00
2011,10,09,00,18,0.00
2011,10,09,00,19,0.00
2011,10,09,00,20,0.00
2011,10,09,00,21,0.00
2011,10,09,00,22,0.00
2011,10,09,00,23,0.00
2011,10,09,00,24,0.00
2011,10,09,00,25,0.00
2011,10,09,00,26,0.00
2011,10,09,00,27,0.00
2011,10,09,00,28,0.00
2011,10,09,00,29,0.00
2011,10,09,00,30,0.00
2011,10,09,00,31,0.00
2011,10,09,00,32,0.00
2011,10,09,00,33,0.00
2011,10,09,00,34,0.00
2011,10,09,00,35,0.00
2011,10,09,00,36,0.00
2011,10,09,00,37,0.00
2011,10,09,00,38,0.00
2011,10,09,00,39,0.00
2011,10,09,00,40,0.00
2011,10,09,00,41,0.00
2011,10,09,00,42,0.00
2011,10,09,00,43,0.00
2011,10,09,00,44,0.00
2011,10,09,00,45,0.00
2011,10,09,00,46,0.00
2011,10,09,00,47,0.00
2011,10,09,00,48,0.00
2011,10,09,00,49,0.00
2011,10,09,00,50,0.00
2011,10,09,00,51,0.00
2011,10,09,00,52,0.00
2011,10,09,00,53,0.00
2011,10,09,00,54,0.00
2011,10,09,00,55,0.00
2011,10,09,00,56,0.00
2011,10,09,00,57,0.00
2011,10,09,00,58,0.00
2011,10,09,00,59,0.00
2011,10,09,01,00,0.00
2011,10,09,01,01,0.00
2011,10,09,01,02,0.00
2011,10,09,01,03,0.00
2011,10,09,01,04,0.00
2011,10,09,01,05,0.00
2011,10,09,01,06,0.00
2011,10,09,01,07,0.00
2011,10,09,01,08,0.00
2011,10,09,01,09,0.00
2011,10,09,01,10,0.00
2011,10,09,01,11,0.00
2011,10,09,01,12,0.00
2011,10,09,01,13,0.00
2011,10,09,01,14,0.00
2011,10,09,01,15,0.00
2011,10,09,01,16,0.00
2011,10,09,01,17,0.00
2011,10,09,01,18,0.00
2011,10,09,01,19,0.00
2011,10,09,01,20,0.00
2011,10,09,01,21,0.00
2011,10,09,01,22,0.00
2011,10,09,01,23,0.00
2011,10,09,01,24,0.00
2011,10,09,01,25,0.00
2011,10,09,01,26,0.00
2011,10,09,01,27,0.00
2011,10,09,01,28,0.00
2011,10,09,01,29,0.00
2011,10,09,01,30,0.00
2011,10,09,01,31,0.00
2011,10,09,01,32,0.00
2011,10,09,01,33,0.00
2011,10,09,01,34,0.00
2011,10,09,01,35,0.00
2011,10,09,01,36,0.00
2011,10,09,01,37,0.00
2011,10,09,01,38,0.00
2011,10,09,01,39,0.00
2011,10,09,01,40,0.00
2011,10,09,01,41,0.00
2011,10,09,01,42,0.00
2011,10,09,01,43,0.00
2011,10,09,01,44,0.00
2011,10,09,01,45,0.00
2011,10,09,01,46,0.00
2011,10,09,01,47,0.00
2011,10,09,01,48,0.00
2011,10,09,01,49,0.00
2011,10,09,01,50,0.00
2011,10,09,01,51,0.00
2011,10,09,01,52,0.00
2011,10,09,01,53,0.00
2011,10,09,01,54,0.00
2011,10,09,01,55,0.00
2011,10,09,01,56,0.00
2011,10,09,01,57,0.00
2011,10,09,01,58,0.00
2011,10,09,01,59,0.00
2011,10,09,02,00,0.00
2011,10,09,02,01,0.00
2011,10,09,02,02,0.00
2011,10,09,02,03,0.00
2011,10,09,02,04,0.00
2011,10,09,02,05,0.00
2011,10,09,02,06,0.00
2011,10,09,02,07,0.00
2011,10,09,02,08,0.00
2011,10,09,02,09,0.00
2011,10,09,02,10,0.00
2011,10,09,02,11,0.00
2011,10,09,02,12,0.00
2011,10,09,02,13,0.00
2011,10,09,02,14,0.00
2011,10,09,02,15,0.00
2011,10,09,02,16,0.00
2011,10,09,02,17,0.00
2011,10,09,02,18,0.00
2011,10,09,02,19,0.00
2011,10,09,02,20,0.00
2011,10,09,02,21,0.00
2011,10,09,02,22,0.00
2011,10,09,02,23,0.00
2011,10,09,02,24,0.00
2011,10,09,02,25,0.00
2011,10,09,02,26,0.00
2011,10,09,02,27,0.00
2011,10,09,02,28,0.00
2011,10,09,02,29,0.00
2011,10,09,02,30,0.00
2011,10,09,02,31,0.00
2011,10,09,02,32,0.00
2011,10,09,02,33,0.00
2011,10,09,02,34,0.00
2011,10,09,02,35,0.00
2011,10,09,02,36,0.00
2011,10,09,02,37,0.00
2011,10,09,02,38,0.00
2011,10,09,02,39,0.00
2011,10,09,02,40,0.00
2011,10,09,02,41,0.00
2011,10,09,02,42,0.00
2011,10,09,02,43,0.00
2011,10,09,02,44,0.00
2011,10,09,02,45,0.00
2011,10,09,02,46,0.00
2011,10,09,02,47,0.00
2011,10,09,02,48,0.00
2011,10,09,02,49,0.00
2011,10,09,02,50,0.00
2011,10,09,02,51,0.00
2011,10,09,02,52,0.00
2011,10,09,02,53,0.00
2011,10,09,02,54,0.00
2011,10,09,02,55,0.00
2011,10,09,02,56,0.00
2011,10,09,02,57,0.00
2011,10,09,02,58,0.00
2011,10,09,02,59,0.00
2011,10,09,03,00,0.00
2011,10,09,03,01,0.00
2011,10,09,03,02,0.00
2011,10,09,03,06,0.00
2011,10,09,03,07,0.00
2011,10,09,03,08,0.00
2011,10,09,03,09,0.00
2011,10,09,03,10,0.00
2011,10,09,03,11,0.00
2011,10,09,03,12,0.00
2011,10,09,03,13,0.00
2011,10,09,03,14,0.00
2011,10,09,03,15,0.00
2011,10,09,03,16,0.00
2011,10,09,03,17,0.00
2011,10,09,03,18,0.00
2011,10,09,03,19,0.00
2011,10,09,03,20,0.00
2011,10,09,03,21,0.00
2011,10,09,03,22,0.00
2011,10,09,03,23,0.00
2011,10,09,03,24,0.00
2011,10,09,03,25,0.00
2011,10,09,03,26,0.00
2011,10,09,03,27,0.00
2011,10,09,03,28,0.00
2011,10,09,03,29,0.00
2011,10,09,03,30,0.00
2011,10,09,03,31,0.00
2011,10,09,03,32,0.00
2011,10,09,03,33,0.00
2011,10,09,03,34,0.00
2011,10,09,03,35,0.00
2011,10,09,03,36,0.00
2011,10,09,03,37,0.00
2011,10,09,03,38,0.00
2011,10,09,03,39,0.00
2011,10,09,03,40,0.00
2011,10,09,03,41,0.00
2011,10,09,03,42,0.00
2011,10,09,03,43,0.00
2011,10,09,03,44,0.00
2011,10,09,03,45,0.00
2011,10,09,03,46,0.00
2011,10,09,03,47,0.00
2011,10,09,03,48,0.00
2011,10,09,03,49,0.00
2011,10,09,03,50,0.00
2011,10,09,03,51,0.00
2011,10,09,03,52,0.00
2011,10,09,03,53,0.00
2011,10,09,03,54,0.00
2011,10,09,03,55,0.00
2011,10,09,03,56,0.00
2011,10,09,03,57,0.00
2011,10,09,03,58,0.00
2011,10,09,03,59,0.00
2011,10,09,04,00,0.00
2011,10,09,04,01,0.00
2011,10,09,04,02,0.00
2011,10,09,04,03,0.00
2011,10,09,04,04,0.00
2011,10,09,04,05,0.00
2011,10,09,04,06,0.00
2011,10,09,04,07,0.00
2011,10,09,04,08,0.00
2011,10,09,04,09,0.00
2011,10,09,04,10,0.00
2011,10,09,04,11,0.00
2011,10,09,04,12,0.00
2011,10,09,04,13,0.00
2011,10,09,04,14,0.00
2011,10,09,04,15,0.00
2011,10,09,04,16,0.00
2011,10,09,04,17,0.00
2011,10,09,04,18,0.00
2011,10,09,04,19,0.00
2011,10,09,04,20,0.00
2011,10,09,04,21,0.00
2011,10,09,04,22,0.00
2011,10,09,04,23,0.00
2011,10,09,04,24,0.00
2011,10,09,04,25,0.00
2011,10,09,04,26,0.00
2011,10,09,04,27,0.00
2011,10,09,04,28,0.00
2011,10,09,04,29,0.00
2011,10,09,04,30,0.00
2011,10,09,04,31,0.00
2011,10,09,04,32,0.00
2011,10,09,04,33,0.00
2011,10,09,04,34,0.00
2011,10,09,04,35,0.00
2011,10,09,04,36,0.00
2011,10,09,04,37,0.00
2011,10,09,04,38,0.00
2011,10,09,04,39,0.00
2011,10,09,04,40,0.00
2011,10,09,04,41,0.00
2011,10,09,04,42,0.00
2011,10,09,04,43,0.00
2011,10,09,04,44,0.00
2011,10,09,04,45,0.00
2011,10,09,04,46,0.00
2011,10,09,04,47,0.00
2011,10,09,04,48,0.00
2011,10,09,04,49,0.00
2011,10,09,04,50,0.00
2011,10,09,04,51,0.00
2011,10,09,04,52,0.00
2011,10,09,04,53,0.00
2011,10,09,04,54,0.00
2011,10,09,04,55,0.00
2011,10,09,04,56,0.00
2011,10,09,04,57,0.00
2011,10,09,04,58,0.00
2011,10,09,04,59,0.00
2011,10,09,05,00,0.00
2011,10,09,05,01,0.00
2011,10,09,05,02,0.00
2011,10,09,05,03,0.00
2011,10,09,05,04,0.00
2011,10,09,05,05,0.00
2011,10,09,05,06,0.00
2011,10,09,05,07,0.00
2011,10,09,05,08,0.00
2011,10,09,05,09,0.00
2011,10,09,05,10,0.00
2011,10,09,05,11,0.00
2011,10,09,05,12,0.00
2011,10,09,05,13,0.00
2011,10,09,05,14,0.00
2011,10,09,05,15,0.00
2011,10,09,05,16,0.00
2011,10,09,05,17,0.00
2011,10,09,05,18,0.00
2011,10,09,05,19,0.00
2011,10,09,05,20,0.00
2011,10,09,05,21,0.00
2011,10,09,05,22,0.00
2011,10,09,05,23,0.00
2011,10,09,05,24,0.00
2011,10,09,05,25,0.00
2011,10,09,05,26,0.00
2011,10,09,05,27,0.00
2011,10,09,05,28,0.00
2011,10,09,05,29,0.00
2011,10,09,05,30,0.00
2011,10,09,05,31,0.00
2011,10,09,05,32,0.00
2011,10,09,05,33,0.00
2011,10,09,05,34,0.00
2011,10,09,05,35,0.00
2011,10,09,05,36,0.00
2011,10,09,05,37,0.00
2011,10,09,05,38,0.00
2011,10,09,05,39,0.00
2011,10,09,05,40,0.00
2011,10,09,05,41,0.00
2011,10,09,05,42,0.00
2011,10,09,05,43,0.00
2011,10,09,05,44,0.00
2011,10,09,05,45,0.00
2011,10,09,05,46,0.00
2011,10,09,05,47,0.00
2011,10,09,05,48,0.00
2011,10,09,05,49,0.00
2011,10,09,05,50,0.00
2011,10,09,05,51,0.00
2011,10,09,05,52,0.00
2011,10,09,05,53,0.00
2011,10,09,05,54,0.00
2011,10,09,05,55,0.00
2011,10,09,05,56,0.00
2011,10,09,05,57,0.00
2011,10,09,05,58,0.00
2011,10,09,05,59,0.00
2011,10,09,06,00,0.00
2011,10,09,06,01,0.00
2011,10,09,06,02,0.00
2011,10,09,06,03,0.00
2011,10,09,06,04,0.00
2011,10,09,06,05,0.00
2011,10,09,06,06,0.00
2011,10,09,06,07,0.00
2011,10,09,06,08,0.00
2011,10,09,06,09,0.00
2011,10,09,06,10,0.00
2011,10,09,06,11,0.00
2011,10,09,06,12,0.00
2011,10,09,06,13,0.00
2011,10,09,06,14,0.00
2011,10,09,06,15,0.00
2011,10,09,06,16,0.00
2011,10,09,06,17,0.00
2011,10,09,06,18,0.00
2011,10,09,06,19,0.00
2011,10,09,06,20,0.00
2011,10,09,06,21,0.00
2011,10,09,06,22,0.00
2011,10,09,06,23,0.00
2011,10,09,06,24,0.00
2011,10,09,06,25,0.00
2011,10,09,06,26,0.00
2011,10,09,06,27,0.00
2011,10,09,06,28,0.00
2011,10,09,06,29,0.00
2011,10,09,06,30,0.00
2011,10,09,06,31,0.00
2011,10,09,06,32,0.00
2011,10,09,06,33,0.00
2011,10,09,06,34,0.00
2011,10,09,06,35,0.00
2011,10,09,06,36,0.00
2011,10,09,06,37,0.00
2011,10,09,06,38,0.00
2011,10,09,06,39,0.00
2011,10,09,06,40,0.00
2011,10,09,06,41,0.00
2011,10,09,06,42,0.00
2011,10,09,06,43,0.00
2011,10,09,06,44,0.00
2011,10,09,06,45,0.00
2011,10,09,06,46,0.00
2011,10,09,06,47,0.00
2011,10,09,06,48,0.00
2011,10,09,06,49,0.00
2011,10,09,06,50,0.00
2011,10,09,06,51,0.00
2011,10,09,06,52,0.00
2011,10,09,06,53,0.00
2011,10,09,06,54,0.00
2011,10,09,06,55,0.00
2011,10,09,06,56,0.00
2011,10,09,06,57,0.00
2011,10,09,06,58,0.00
2011,10,09,06,59,0.00
2011,10,09,07,00,0.00
2011,10,09,07,01,0.00
2011,10,09,07,02,0.00
2011,10,09,07,03,0.00
2011,10,09,07,04,0.00
2011,10,09,07,05,0.00
2011,10,09,07,06,0.00
2011,10,09,07,07,0.00
2011,10,09,07,08,0.00
2011,10,09,07,09,0.00
2011,10,09,07,10,0.00
2011,10,09,07,11,0.00
2011,10,09,07,12,0.00
2011,10,09,07,13,0.00
2011,10,09,07,14,0.00
2011,10,09,07,15,0.00
2011,10,09,07,16,0.00
2011,10,09,07,17,0.00
2011,10,09,07,18,0.00
2011,10,09,07,19,0.00
2011,10,09,07,20,0.00
2011,10,09,07,21,0.00
2011,10,09,07,22,0.00
2011,10,09,07,23,0.00
2011,10,09,07,24,0.00
2011,10,09,07,25,2.00
2011,10,09,07,26,5.00
2011,10,09,07,27,6.00
2011,10,09,07,28,8.10
2011,10,09,07,29,9.00
2011,10,09,07,30,10.30
2011,10,09,07,31,11.00
2011,10,09,07,32,11.00
2011,10,09,07,33,11.70
2011,10,09,07,34,12.00
2011,10,09,07,35,12.00
2011,10,09,07,36,12.00
2011,10,09,07,37,12.00
2011,10,09,07,38,13.90
2011,10,09,07,39,14.00
2011,10,09,07,40,14.00
2011,10,09,07,41,14.00
2011,10,09,07,42,14.00
2011,10,09,07,43,14.00
2011,10,09,07,44,14.00
2011,10,09,07,45,14.00
2011,10,09,07,46,14.00
2011,10,09,07,47,14.00
2011,10,09,07,48,14.00
2011,10,09,07,49,14.90
2011,10,09,07,50,16.00
2011,10,09,07,51,16.00
2011,10,09,07,52,17.20
2011,10,09,07,53,18.60
2011,10,09,07,54,19.00
2011,10,09,07,55,19.00
2011,10,09,07,56,20.50
2011,10,09,07,57,22.50
2011,10,09,07,58,23.00
2011,10,09,07,59,24.70
2011,10,09,08,00,25.90
2011,10,09,08,01,27.90
2011,10,09,08,02,28.10
2011,10,09,08,03,30.00
2011,10,09,08,04,30.30
2011,10,09,08,05,33.00
2011,10,09,08,06,33.00
2011,10,09,08,07,33.40
2011,10,09,08,08,35.50
2011,10,09,08,09,37.70
2011,10,09,08,10,39.40
2011,10,09,08,11,40.00
2011,10,09,08,12,40.90
2011,10,09,08,13,42.00
2011,10,09,08,14,42.00
2011,10,09,08,15,43.20
2011,10,09,08,16,44.00
2011,10,09,08,17,45.30
2011,10,09,08,18,46.00
2011,10,09,08,19,46.70
2011,10,09,08,20,48.60
2011,10,09,08,21,49.00
2011,10,09,08,22,52.40
2011,10,09,08,23,53.90
2011,10,09,08,24,54.00
2011,10,09,08,25,56.10
2011,10,09,08,26,58.00
2011,10,09,08,27,58.20
2011,10,09,08,28,59.70
2011,10,09,08,29,58.00
2011,10,09,08,30,57.60
2011,10,09,08,31,55.40
2011,10,09,08,32,54.00
2011,10,09,08,33,52.80
2011,10,09,08,34,50.20
2011,10,09,08,35,48.20
2011,10,09,08,36,46.50
2011,10,09,08,37,44.90
2011,10,09,08,38,42.90
2011,10,09,08,39,42.00
2011,10,09,08,40,40.70
2011,10,09,08,41,40.00
2011,10,09,08,42,39.30
2011,10,09,08,43,39.00
2011,10,09,08,44,37.30
2011,10,09,08,45,37.00
2011,10,09,08,46,37.00
2011,10,09,08,47,37.00
2011,10,09,08,48,37.00
2011,10,09,08,49,37.00
2011,10,09,08,50,37.00
2011,10,09,08,51,37.00
2011,10,09,08,52,37.00
2011,10,09,08,53,37.00
2011,10,09,08,54,37.00
2011,10,09,08,55,37.00
2011,10,09,08,56,37.80
2011,10,09,08,57,39.00
2011,10,09,08,58,39.50
2011,10,09,08,59,40.00
2011,10,09,09,00,41.10
2011,10,09,09,01,43.10
2011,10,09,09,02,45.80
2011,10,09,09,03,48.30
2011,10,09,09,04,51.70
2011,10,09,09,05,56.80
2011,10,09,09,06,61.20
2011,10,09,09,07,62.80
2011,10,09,09,08,64.70
2011,10,09,09,09,68.60
2011,10,09,09,10,71.80
2011,10,09,09,11,76.90
2011,10,09,09,12,81.30
2011,10,09,09,13,84.40
2011,10,09,09,14,88.80
2011,10,09,09,15,94.40
2011,10,09,09,16,102.80
2011,10,09,09,17,116.40
2011,10,09,09,18,129.30
2011,10,09,09,19,122.50
2011,10,09,09,20,113.00
2011,10,09,09,21,113.40
2011,10,09,09,22,113.50
2011,10,09,09,23,113.00
2011,10,09,09,24,113.00
2011,10,09,09,25,114.80
2011,10,09,09,26,117.30
2011,10,09,09,27,120.10
2011,10,09,09,28,124.00
2011,10,09,09,29,126.60
2011,10,09,09,30,127.80
2011,10,09,09,31,131.40
2011,10,09,09,32,133.80
2011,10,09,09,33,136.90
2011,10,09,09,34,142.00
2011,10,09,09,35,146.20
2011,10,09,09,36,148.40
2011,10,09,09,37,152.40
2011,10,09,09,38,160.00
2011,10,09,09,39,160.60
2011,10,09,09,40,163.60
2011,10,09,09,41,165.00
2011,10,09,09,42,165.70
2011,10,09,09,43,171.40
2011,10,09,09,44,178.00
2011,10,09,09,45,179.40
2011,10,09,09,46,183.20
2011,10,09,09,47,186.80
2011,10,09,09,48,191.20
2011,10,09,09,49,195.60
2011,10,09,09,50,201.90
2011,10,09,09,51,226.10
2011,10,09,09,52,241.50
2011,10,09,09,53,236.00
2011,10,09,09,54,229.80
2011,10,09,09,55,229.00
2011,10,09,09,56,238.50
2011,10,09,09,57,247.40
2011,10,09,09,58,282.60
2011,10,09,09,59,296.50
2011,10,09,10,00,292.00
2011,10,09,10,01,292.00
2011,10,09,10,02,277.70
2011,10,09,10,03,225.10
2011,10,09,10,04,208.10
2011,10,09,10,05,205.30
2011,10,09,10,06,202.30
2011,10,09,10,07,196.60
2011,10,09,10,08,189.00
2011,10,09,10,09,185.40
2011,10,09,10,10,181.50
2011,10,09,10,11,177.20
2011,10,09,10,12,174.70
2011,10,09,10,13,171.90
2011,10,09,10,14,169.50
2011,10,09,10,15,169.00
2011,10,09,10,16,167.40
2011,10,09,10,17,167.00
2011,10,09,10,18,167.00
2011,10,09,10,19,167.00
2011,10,09,10,20,167.00
2011,10,09,10,21,169.00
2011,10,09,10,22,169.00
2011,10,09,10,23,169.30
2011,10,09,10,24,171.20
2011,10,09,10,25,172.40
2011,10,09,10,26,174.60
2011,10,09,10,27,177.60
2011,10,09,10,28,182.80
2011,10,09,10,29,189.60
2011,10,09,10,30,199.40
2011,10,09,10,31,224.00
2011,10,09,10,32,253.70
2011,10,09,10,33,270.40
2011,10,09,10,34,282.20
2011,10,09,10,35,307.80
2011,10,09,10,36,290.60
2011,10,09,10,37,284.30
2011,10,09,10,38,293.10
2011,10,09,10,39,288.60
2011,10,09,10,40,258.10
2011,10,09,10,41,244.00
2011,10,09,10,42,232.50
2011,10,09,10,43,230.10
2011,10,09,10,44,232.00
2011,10,09,10,45,231.70
2011,10,09,10,46,228.40
2011,10,09,10,47,225.30
2011,10,09,10,48,228.20
2011,10,09,10,49,233.80
2011,10,09,10,50,242.90
2011,10,09,10,51,250.40
2011,10,09,10,52,252.60
2011,10,09,10,53,257.20
2011,10,09,10,54,257.50
2011,10,09,10,55,253.90
2011,10,09,10,56,259.00
2011,10,09,10,57,267.00
2011,10,09,10,58,270.30
2011,10,09,10,59,260.60
2011,10,09,11,00,247.30
2011,10,09,11,01,244.00
2011,10,09,11,02,241.60
2011,10,09,11,03,248.60
2011,10,09,11,04,248.30
2011,10,09,11,05,257.50
2011,10,09,11,06,260.00
2011,10,09,11,07,276.70
2011,10,09,11,08,289.70
2011,10,09,11,09,288.00
2011,10,09,11,10,289.80
2011,10,09,11,11,298.10
2011,10,09,11,12,304.00
2011,10,09,11,13,302.40
2011,10,09,11,14,300.20
2011,10,09,11,15,318.80
2011,10,09,11,16,310.80
2011,10,09,11,17,320.00
2011,10,09,11,18,334.10
2011,10,09,11,19,336.00
2011,10,09,11,20,332.40
2011,10,09,11,21,313.10
2011,10,09,11,22,295.60
2011,10,09,11,23,287.10
2011,10,09,11,24,292.50
2011,10,09,11,25,300.10
2011,10,09,11,26,307.00
2011,10,09,11,27,314.30
2011,10,09,11,28,306.50
2011,10,09,11,29,294.60
2011,10,09,11,30,285.10
2011,10,09,11,31,288.70
2011,10,09,11,32,296.40
2011,10,09,11,33,303.50
2011,10,09,11,34,299.80
2011,10,09,11,35,301.00
2011,10,09,11,36,321.00
2011,10,09,11,37,324.30
2011,10,09,11,38,313.00
2011,10,09,11,39,328.20
2011,10,09,11,40,339.50
2011,10,09,11,41,327.70
2011,10,09,11,42,326.40
2011,10,09,11,43,315.10
2011,10,09,11,44,288.30
2011,10,09,11,45,282.50
2011,10,09,11,46,308.10
2011,10,09,11,47,303.50
2011,10,09,11,48,342.20
2011,10,09,11,49,329.00
2011,10,09,11,50,374.50
2011,10,09,11,51,393.30
2011,10,09,11,52,378.00
2011,10,09,11,53,362.20
2011,10,09,11,54,371.10
2011,10,09,11,55,415.40
2011,10,09,11,56,454.20
2011,10,09,11,57,444.90
2011,10,09,11,58,437.00
2011,10,09,11,59,404.60
2011,10,09,12,00,420.70
2011,10,09,12,01,358.40
2011,10,09,12,02,275.60
2011,10,09,12,03,225.60
2011,10,09,12,04,208.10
2011,10,09,12,05,205.70
2011,10,09,12,06,235.60
2011,10,09,12,07,257.00
2011,10,09,12,08,323.30
2011,10,09,12,09,321.50
2011,10,09,12,10,299.50
2011,10,09,12,11,343.40
2011,10,09,12,12,414.50
2011,10,09,12,13,425.00
2011,10,09,12,14,556.70
2011,10,09,12,15,567.80
2011,10,09,12,16,602.70
2011,10,09,12,17,597.00
2011,10,09,12,18,604.80
2011,10,09,12,19,592.00
2011,10,09,12,20,574.00
2011,10,09,12,21,576.40
2011,10,09,12,22,501.90
2011,10,09,12,23,432.50
2011,10,09,12,24,373.40
2011,10,09,12,25,345.20
2011,10,09,12,26,343.40
2011,10,09,12,27,355.00
2011,10,09,12,28,375.40
2011,10,09,12,29,392.80
2011,10,09,12,30,438.90
2011,10,09,12,31,462.00
2011,10,09,12,32,574.70
2011,10,09,12,33,625.50
2011,10,09,12,34,597.00
2011,10,09,12,35,617.30
2011,10,09,12,36,617.50
2011,10,09,12,37,621.80
2011,10,09,12,38,620.90
2011,10,09,12,39,618.90
2011,10,09,12,40,616.60
2011,10,09,12,41,612.50
2011,10,09,12,42,610.40
2011,10,09,12,43,612.00
2011,10,09,12,44,612.00
2011,10,09,12,45,610.80
2011,10,09,12,46,608.70
2011,10,09,12,47,610.00
2011,10,09,12,48,610.00
2011,10,09,12,49,607.60
2011,10,09,12,50,605.00
2011,10,09,12,51,605.00
2011,10,09,12,52,603.80
2011,10,09,12,53,604.30
2011,10,09,12,54,605.00
2011,10,09,12,55,605.00
2011,10,09,12,56,610.20
2011,10,09,12,57,614.50
2011,10,09,12,58,612.50
2011,10,09,12,59,616.50
2011,10,09,13,00,620.60
2011,10,09,13,01,620.70
2011,10,09,13,02,615.20
2011,10,09,13,03,616.80
2011,10,09,13,04,614.70
2011,10,09,13,05,611.60
2011,10,09,13,06,610.00
2011,10,09,13,07,610.80
2011,10,09,13,08,612.00
2011,10,09,13,09,607.50
2011,10,09,13,10,601.40
2011,10,09,13,11,597.70
2011,10,09,13,12,596.00
2011,10,09,13,13,597.50
2011,10,09,13,14,598.40
2011,10,09,13,15,598.00
2011,10,09,13,16,598.00
2011,10,09,13,17,600.10
2011,10,09,13,18,602.50
2011,10,09,13,19,604.50
2011,10,09,13,20,603.40
2011,10,09,13,21,601.30
2011,10,09,13,22,601.00
2011,10,09,13,23,604.60
2011,10,09,13,24,608.20
2011,10,09,13,25,613.30
2011,10,09,13,26,619.90
2011,10,09,13,27,628.50
2011,10,09,13,28,631.30
2011,10,09,13,29,632.00
2011,10,09,13,30,633.20
2011,10,09,13,31,647.40
2011,10,09,13,32,656.00
2011,10,09,13,33,658.00
2011,10,09,13,34,663.60
2011,10,09,13,35,663.00
2011,10,09,13,36,663.00
2011,10,09,13,37,679.20
2011,10,09,13,38,685.60
2011,10,09,13,39,683.30
2011,10,09,13,40,692.20
2011,10,09,13,41,705.80
2011,10,09,13,42,724.40
2011,10,09,13,43,732.20
2011,10,09,13,44,655.70
2011,10,09,13,45,642.00
2011,10,09,13,46,358.70
2011,10,09,13,47,277.50
2011,10,09,13,48,295.20
2011,10,09,13,49,676.60
2011,10,09,13,50,673.00
2011,10,09,13,51,671.70
2011,10,09,13,52,663.50
2011,10,09,13,53,652.60
2011,10,09,13,54,640.60
2011,10,09,13,55,633.60
2011,10,09,13,56,626.60
2011,10,09,13,57,614.60
2011,10,09,13,58,606.70
2011,10,09,13,59,605.00
2011,10,09,14,00,602.80
2011,10,09,14,01,596.60
2011,10,09,14,02,590.80
2011,10,09,14,03,586.40
2011,10,09,14,04,582.90
2011,10,09,14,05,578.20
2011,10,09,14,06,577.80
2011,10,09,14,07,578.00
2011,10,09,14,08,578.00
2011,10,09,14,09,597.00
2011,10,09,14,10,590.30
2011,10,09,14,11,578.70
2011,10,09,14,12,591.90
2011,10,09,14,13,591.00
2011,10,09,14,14,591.00
2011,10,09,14,15,497.90
2011,10,09,14,16,149.00
2011,10,09,14,17,149.00
2011,10,09,14,18,301.20
2011,10,09,14,19,581.50
2011,10,09,14,20,577.50
2011,10,09,14,21,577.00
2011,10,09,14,22,575.00
2011,10,09,14,23,571.30
2011,10,09,14,24,568.80
2011,10,09,14,25,566.70
2011,10,09,14,26,563.90
2011,10,09,14,27,560.10
2011,10,09,14,28,555.00
2011,10,09,14,29,548.10
2011,10,09,14,30,545.30
2011,10,09,14,31,540.70
2011,10,09,14,32,538.10
2011,10,09,14,33,538.20
2011,10,09,14,34,541.20
2011,10,09,14,35,543.20
2011,10,09,14,36,545.50
2011,10,09,14,37,547.80
2011,10,09,14,38,545.70
2011,10,09,14,39,539.20
2011,10,09,14,40,530.40
2011,10,09,14,41,520.90
2011,10,09,14,42,508.20
2011,10,09,14,43,500.10
2011,10,09,14,44,514.50
2011,10,09,14,45,525.30
2011,10,09,14,46,536.00
2011,10,09,14,47,540.60
2011,10,09,14,48,543.60
2011,10,09,14,49,541.50
2011,10,09,14,50,537.10
2011,10,09,14,51,533.70
2011,10,09,14,52,531.30
2011,10,09,14,53,526.80
2011,10,09,14,54,522.40
2011,10,09,14,55,519.20
2011,10,09,14,56,513.30
2011,10,09,14,57,510.10
2011,10,09,14,58,512.30
2011,10,09,14,59,515.00
2011,10,09,15,00,514.40
2011,10,09,15,01,515.50
2011,10,09,15,02,525.40
2011,10,09,15,03,522.70
2011,10,09,15,04,517.20
2011,10,09,15,05,508.40
2011,10,09,15,06,499.00
2011,10,09,15,07,491.80
2011,10,09,15,08,488.00
2011,10,09,15,09,485.80
2011,10,09,15,10,480.80
2011,10,09,15,11,478.00
2011,10,09,15,12,478.00
2011,10,09,15,13,478.00
2011,10,09,15,14,478.00
2011,10,09,15,15,478.00
2011,10,09,15,16,217.10
2011,10,09,15,17,171.00
2011,10,09,15,18,440.80
2011,10,09,15,19,453.90
2011,10,09,15,20,451.90
2011,10,09,15,21,450.20
2011,10,09,15,22,452.00
2011,10,09,15,23,452.00
2011,10,09,15,24,451.50
2011,10,09,15,25,449.50
2011,10,09,15,26,447.10
2011,10,09,15,27,443.60
2011,10,09,15,28,440.30
2011,10,09,15,29,438.60
2011,10,09,15,30,436.20
2011,10,09,15,31,433.00
2011,10,09,15,32,431.50
2011,10,09,15,33,429.80
2011,10,09,15,34,427.70
2011,10,09,15,35,427.00
2011,10,09,15,36,424.90
2011,10,09,15,37,421.00
2011,10,09,15,38,420.00
2011,10,09,15,39,417.50
2011,10,09,15,40,417.00
2011,10,09,15,41,415.10
2011,10,09,15,42,413.00
2011,10,09,15,43,410.90
2011,10,09,15,44,407.80
2011,10,09,15,45,405.00
2011,10,09,15,46,398.60
2011,10,09,15,47,396.40
2011,10,09,15,48,393.50
2011,10,09,15,49,391.40
2011,10,09,15,50,389.40
2011,10,09,15,51,388.00
2011,10,09,15,52,388.00
2011,10,09,15,53,387.50
2011,10,09,15,54,387.00
2011,10,09,15,55,379.30
2011,10,09,15,56,373.00
2011,10,09,15,57,255.40
2011,10,09,15,58,192.00
2011,10,09,15,59,320.90
2011,10,09,16,00,367.00
2011,10,09,16,01,364.60
2011,10,09,16,02,346.10
2011,10,09,16,03,349.30
2011,10,09,16,04,284.60
2011,10,09,16,05,305.10
2011,10,09,16,06,308.60
2011,10,09,16,07,273.60
2011,10,09,16,08,319.60
2011,10,09,16,09,358.40
2011,10,09,16,10,363.50
2011,10,09,16,11,362.00
2011,10,09,16,12,362.00
2011,10,09,16,13,361.00
2011,10,09,16,14,359.00
2011,10,09,16,15,358.10
2011,10,09,16,16,354.50
2011,10,09,16,17,351.00
2011,10,09,16,18,346.10
2011,10,09,16,19,341.80
2011,10,09,16,20,334.10
2011,10,09,16,21,330.00
2011,10,09,16,22,322.50
2011,10,09,16,23,305.00
2011,10,09,16,24,301.00
2011,10,09,16,25,236.40
2011,10,09,16,26,242.00
2011,10,09,16,27,230.50
2011,10,09,16,28,206.00
2011,10,09,16,29,207.20
2011,10,09,16,30,216.00
2011,10,09,16,31,197.10
2011,10,09,16,32,184.40
2011,10,09,16,33,175.80
2011,10,09,16,34,176.20
2011,10,09,16,35,195.20
2011,10,09,16,36,196.50
2011,10,09,16,37,182.80
2011,10,09,16,38,174.70
2011,10,09,16,39,187.00
2011,10,09,16,40,183.00
2011,10,09,16,41,173.90
2011,10,09,16,42,182.20
2011,10,09,16,43,186.90
2011,10,09,16,44,176.80
2011,10,09,16,45,166.80
2011,10,09,16,46,170.20
2011,10,09,16,47,176.90
2011,10,09,16,48,182.50
2011,10,09,16,49,191.10
2011,10,09,16,50,194.90
2011,10,09,16,51,181.00
2011,10,09,16,52,174.40
2011,10,09,16,53,182.10
2011,10,09,16,54,172.40
2011,10,09,16,55,161.70
2011,10,09,16,56,154.20
2011,10,09,16,57,141.20
2011,10,09,16,58,114.70
2011,10,09,16,59,107.00
2011,10,09,17,00,111.10
2011,10,09,17,01,118.00
2011,10,09,17,02,113.50
2011,10,09,17,03,109.00
2011,10,09,17,04,111.80
2011,10,09,17,05,122.80
2011,10,09,17,06,132.60
2011,10,09,17,07,124.50
2011,10,09,17,08,110.40
2011,10,09,17,09,104.80
2011,10,09,17,10,99.20
2011,10,09,17,11,98.00
2011,10,09,17,12,97.10
2011,10,09,17,13,99.80
2011,10,09,17,14,109.40
2011,10,09,17,15,117.90
2011,10,09,17,16,117.20
2011,10,09,17,17,125.80
2011,10,09,17,18,111.40
2011,10,09,17,19,103.80
2011,10,09,17,20,100.50